Zurück zum Katalog

METEOR 3M

AktivWetterSSO
NORAD 27001·PAYLOAD·🇷🇺 Russia

Gestartet Dec 10, 2001 von Baikonur Cosmodrome

Loading…

Nächste Überflüge (nächste 24 Stunden)

TLE

AktuellSource: Space-Track

Epoche: Sep 14, 2026, 11:54 UTC

1 27001U 01056A   26257.49639501 -.00000031  00000-0  18677-4 0  9999
2 27001  99.8241  85.5873 0013294 333.0124  57.9055 13.69047510237106

Verfolge METEOR 3M in Echtzeit mit AllMySat

Download on the App Store